Regional Weather Roundup
Issued by NWS

Home | Current Version | Previous Version | Text Only | Print | Product List | Glossary On
Versions: 1 2 3 4 5 6 7 8 9 10 11 12 13 14 15 16 17 18 19 20 21 22 23 24 25 26 27 28 29 30 31 32 33 34 35 36 37 38 39 40 41 42 43 44 45 46 47 48 49 50
000
ASUS44 KJAN 210810
RWRMS

MISSISSIPPI HOURLY WEATHER ROUNDUP
NATIONAL WEATHER SERVICE JACKSON MS
300 AM CDT THU AUG 21 2014

NOTE: "FAIR: INDICATES FEW OR NO CLOUDS BELOW 12,000 FEET WITH NO
SIGNIFICANT WEATHER AND/OR OBSTRUCTIONS TO VISIBILITY.

MSZ001>002-007>008-010>013-018>021-025>028-034>036-210900-
NORTHWEST MISSISSIPPI

CITY           SKY/WX    TMP DP  RH WIND       PRES   REMARKS
CLARKSDALE     FAIR      75  75 100 CALM      30.05F
CLEVELAND      FAIR      75  73  94 S3        30.05S
GREENWOOD      CLEAR     74  72  93 CALM      30.07R
GREENVILLE     CLEAR     77  71  82 SW6       30.05R
GRENADA        FAIR      72  70  94 CALM      30.06S
OLIVE BRANCH   CLEAR     73  73 100 S5        30.05S
OXFORD         FAIR      73  70  88 CALM      30.08S
TUNICA         SUNNY     75  72  88 S5        30.05S
$$

MSZ003>006-009-014>017-022>024-029>033-037>039-210900-
NORTHEAST MISSISSIPPI

CITY           SKY/WX    TMP DP  RH WIND       PRES   REMARKS
BELMONT        FAIR      72  72  99 CALM      30.08S
COLUMBUS AFB   CLEAR     74  73  97 CALM      30.07R
CORINTH        FAIR      72  70  94 CALM      30.06S FOG
GOLDN TRIANGLE CLEAR     75  70  83 CALM      30.08R
STARKVILLE     FAIR      72  70  94 CALM      30.07R
TUPELO         CLEAR     75  72  90 W3        30.06S
$$

MSZ040-058-210900-
CENTRAL MISSISSIPPI

CITY           SKY/WX    TMP DP  RH WIND       PRES   REMARKS
JACKSON INTL   CLEAR     76  71  85 CALM      30.09R
JACKSON HAWKNS CLEAR     77  71  82 S3        30.09R
MERIDIAN KEY   CLEAR     74  72  93 CALM      30.09R
MERIDIAN NAS   CLEAR     76  72  87 CALM      30.08S
RAYMOND        FAIR      73  68  83 CALM      30.09S
VICKSBURG      PTCLDY    73  71  93 CALM      30.07S
$$

MSZ059>079-210900-
SOUTH MISSISSIPPI

CITY           SKY/WX    TMP DP  RH WIND       PRES   REMARKS
BROOKHAVEN     FAIR      73  72  94 CALM      30.11S
COLUMBIA       FOG       73  72  94 MISG      30.08S VSB<1/4
HATTIESBURG    CLEAR     76  74  93 CALM      30.10R
MCCOMB         CLEAR     73  70  90 CALM      30.10S
NATCHEZ        PTCLDY    73  72  94 CALM      30.09S
PINE BELT      CLEAR     73  70  88 CALM      30.11R
$$

MSZ080>082-210900-
COASTAL MISSISSIPPI

CITY           SKY/WX    TMP DP  RH WIND       PRES   REMARKS
BILOXI         CLEAR     82  76  82 SW3       30.08S HX  90
PASCAGOULA     CLEAR     74  73  97 CALM      30.08F
GULFPORT       CLEAR     78  76  93 CALM      30.07F
$$


USA.gov is the U.S. government's official web portal to all federal, state and local government web resources and services.